Current Version              Previous Version:    01  02  03  04  05  06  07  08  09  10  11  12  13  14  15  16  17  18  19  20  21  22  23  24  25  26  27  28  29  30  
   31  32  33  34  35  36  37  38  39  40  41  42  43  44  45  46  47  48  49  50  51  52  53  54  55  56  57  58  59  60  

[Printable]
176
ASUS44 KLUB 010101
RWRTX
WEST TEXAS WEATHER ROUNDUP
NATIONAL WEATHER SERVICE LUBBOCK TX
800 PM CDT THU JUL 31 2014

NOTE: "FAIR" INDICATES FEW OR NO CLOUDS BELOW 12,000 FEET WITH NO
SIGNIFICANT WEATHER AND/OR OBSTRUCTIONS TO VISIBILITY.

TXZ004-006>008-010-012-014-016-OKZ002-010200-
TEXAS PANHANDLE/OKLAHOMA PANHANDLE

CITY           SKY/WX    TMP DP  RH WIND       PRES   REMARKS
AMARILLO       PTCLDY    75  52  44 NE10      30.16S
BORGER         MOCLDY    78  53  41 NE5       30.14R
CANADIAN       PTCLDY    76  57  51 E6        30.10R
DALHART        CLOUDY    75  54  47 E7        30.21R
DUMAS          CLOUDY    72  55  54 NE7       30.18S
GUYMON         FAIR      77  52  41 NE3       30.14S
HEREFORD       PTCLDY    76  55  47 N7        30.17S
PAMPA          MOCLDY    73  55  52 E7        30.16R
PERRYTON       PTCLDY    74  57  54 E6        30.13R
$$

TXZ026-029-035-045-048-010200-
SOUTHERN PANHANDLE/SOUTH PLAINS/ROLLING PLAINS

CITY           SKY/WX    TMP DP  RH WIND       PRES   REMARKS
CHILDRESS      CLEAR     78  63  59 E8        30.08S
SEMINOLE       CLEAR     83  53  35 NE5       30.11R HAZE
LUBBOCK        MOCLDY    79  52  38 E7        30.11F
PLAINVIEW      CLEAR     77  50  39 E10       30.12F
SNYDER         CLEAR     79  60  51 NE8       30.08R
$$

TXZ052-054-060>062-072-078-127-140-154-169-010200-
PERMIAN BASIN/CONCHO VALLEY/BIG COUNTRY/EDWARDS PLATEAU

CITY           SKY/WX    TMP DP  RH WIND       PRES   REMARKS
ABILENE        CLOUDY    79  63  57 NE10      30.05S
BIG SPRING     CLEAR     84  57  39 E9        30.09R
BRADY          MOCLDY    82  63  51 NW6       30.02S
BROWNWOOD      CLOUDY    79  64  61 NE8       30.02S
JUNCTION       CLEAR     86  65  49 N9        29.99S
MIDLAND        CLEAR     83  58  42 E6        30.07S
ODESSA         CLEAR     82  56  40 E8        30.09S
SAN ANGELO     CLEAR     81  63  54 E13       30.03R
SONORA         CLEAR     84  63  48 NE12      30.05S
SWEETWATER     CLEAR     78  61  54 NE12      30.10R
WINK           PTCLDY    86  58  38 E9        30.05S
$$

TXZ055-058-074-075-080-082-010200-
FAR WEST/SOUTHWEST MOUNTAINS/TRANS PECOS

CITY           SKY/WX    TMP DP  RH WIND       PRES   REMARKS
ALPINE         CLEAR     77  58  52 NE10      30.22S
DRYDEN           N/A     95  63  34 NE7       29.98S HX  96
EL PASO        PTSUNNY   86  60  41 E10       30.05R
FORT STOCKTON  CLEAR     83  60  45 E6        30.08S
GUADALUPE PASS SUNNY     66  59  78 NE23      30.22R
MARFA          PTCLDY    75  57  53 NE13      30.20S
PRESIDIO       FAIR      93  58  29 E12G22    29.98R
$$

TXZ014-016-019-021>030-083-010200
TEXAS TECH WEST TEXAS MESONET/TEXAS PANHANDLE/NORTHERN SOUTH PLAINS

CITY           SKY/WX    TMP DP  RH WIND       PRES   REMARKS
ABERNATHY 5ENE   N/A     79  49  34 NE7       30.13S
AMARILLO 9NNE    N/A     74  58  57 NE3       30.15S
AMARILLO 7SSE    N/A     75  53  46 NE10      30.17S
AMHERST 1NE      N/A     78  49  36 NE9       30.14S
BOOTLEG 11WNW    N/A     74  51  44 E8        30.21S
CANADIAN 6E      N/A     74  58  56 NE6       30.09S
CAPROCK CYN SP   N/A     78  54  42 NE7       30.11S
CHILDRESS 2NNE   N/A     77  64  64 E12       30.07S
CLARENDON 2WSW   N/A     75  55  50 NE6       30.12S
CLAUDE 12SW      N/A     75  55  49 NE7       30.15S
DIMMITT 2NE      N/A     76  53  45 NE6       30.16F
FLOYDADA 2NNE    N/A     77  48  36 NE7       30.12S
FRIONA 2NE       N/A     76  50  39 E6        30.18S
GOODLETT 3W      N/A     76  62  62 E8        30.06R
HART 3N          N/A     75  54  46 E7        30.15F
HEREFORD 2NW     N/A     75  53  45 N7        30.17S
MCLEAN 1E        N/A     73  56  53 NE7       30.11S
MEMPHIS 1NE      N/A     79  54  41 NE6       30.08S
MULESHOE 2SSW    N/A     78  48  34 NE8       30.15S
OLTON 6S         N/A     78  50  37 NE6       30.14S
PALO DURO SP     N/A     76  53  43 NE6       30.16S
PAMPA 2E         N/A     74  56  54 NE7       30.14S
PLAINVIEW 1S     N/A     78  50  38 NE8       30.13S
SILVERTON 7ESE   N/A     76  52  42 NE9       30.13S
TULIA 2ENE       N/A     77  51  40 E9        30.15S
TURKEY 2WSW      N/A     79  51  38 NE9       30.09S
UMBARGER 3NNE    N/A     76  52  42 E7        30.17S
$$

TXZ033>036-039>041-045>048-010200
TEXAS TECH WEST TEXAS MESONET/SOUTH PLAINS

CITY           SKY/WX    TMP DP  RH WIND       PRES   REMARKS
AIKEN 3WSW       N/A     75  55  49 NE5       30.15R
ANTON 6SSW       N/A     80  50  34 NE9       30.12S
BROWNFIELD 2S    N/A     81  51  35 NE8       30.11S
DENVR CTY 7WNW   N/A     81  50  34 NE5       30.12S
GAIL 2ESE        N/A     84  55  36 NE7       30.06R
LAMESA 2SE       N/A     83  53  35 NE7       30.08S
LEVELLAND 4S     N/A     79  51  37 NE5       30.13R
LUBBOCK 3WNW     N/A     80  50  34 NE7       30.11S
MORTON 1ENE      N/A     79  49  34 E8        30.14S
ODONNELL 1N      N/A     82  52  35 NE9       30.09S
PLAINS 3N        N/A     79  51  36 NE8       30.14R
RALLS 1SE        N/A     79  53  40 NE8       30.12S
REESE CENTER     N/A     80  49  34 NE10      30.12R
SEAGRAVES 1SW    N/A     83  54  35 E6        30.10S
SEMINOLE 2NNE    N/A     83  52  34 NE6       30.10R
SLATON 2NE       N/A     79  51  37 NE7       30.10S
SNYDER 3E        N/A     80  60  51 E10       30.07R
SUNDOWN 8SW      N/A     79  51  37 NE5       30.13S
TAHOKA 3NNE      N/A     81  54  39 N9        30.10R
WOLFFORTH 6SSW   N/A     80  53  37 E8        30.12R
$$

TXZ031-032-036>038-042>044-010200-
TEXAS TECH WEST TEXAS MESONET/ROLLING PLAINS

CITY           SKY/WX    TMP DP  RH WIND       PRES   REMARKS
ASPERMONT 3NE    N/A     81  60  49 NE10      30.05S
FLUVANNA 3WNW    N/A     82  54  38 NE10      30.07S
GRAHAM 5SSW      N/A     82  53  36 NE14      30.08S
GUTHRIE 10WSW    N/A     81  58  46 NE9       30.06R
HASKELL 1NW      N/A     78  60  54 NE12      30.05R
JAYTON 1SSE      N/A     81  58  45 NE9       30.06R
KNOX CITY 3NW    N/A     79  58  49 NE10      30.06R
LK A HENRY 1NW   N/A     82  57  41 NE9       30.05S
NORTHFIELD 1S    N/A     80  57  45 NE6       30.07S
ODELL 4ENE       N/A     76  64  66 NE7       30.06S
PADUCAH 10SW     N/A     78  60  52 NE12      30.06S
POST 1NE         N/A     82  52  35 NE9       30.07S
RRING SPRGS 3N   N/A     79  56  44 NE9       30.09S
SEYMOUR 3NW      N/A     77  62  59 N12       30.05R
SPUR 1W          N/A     81  54  40 NE8       30.06S
WEINERT 2NNE     N/A     77  62  60 NE10      30.06R
WHITE RVR 6NE    N/A     81  55  40 NE8       30.08S
$$

TXZ052-054-060>062-072-078-127-140-154-169-010200-
TEXAS TECH WEST TEXAS MESONET/PERMIAN BASIN/
CONCHO VALLEY/BIG COUNTRY/EDWARDS PLATEAU

CITY           SKY/WX    TMP DP  RH WIND       PRES   REMARKS
COYANOSA 2N      N/A     86  60  41 NE7       30.05S
JUNCTION 1SSW    N/A     86  66  51 N6        30.00R
MERTZON 3NNE     N/A     84  63  49 E8        30.04R
SAN ANGELO 7NW   N/A     82  60  46 NE13      30.04R
STRLNG CT 4WSW   N/A     82  61  48 N5        30.06R
ST LAWRNCE 5SW   N/A     82  56  41 NE5       30.07R
SWEETWATR 11SW   N/A     78  62  57 NE12      30.08R
WALL 1E          N/A     80  61  51 NE10      30.04S
$$

TXZ055-058-074-075-080-082-010200-
TEXAS TECH WEST TEXAS MESONET/FAR WEST/SOUTHWEST MOUNTAINS/TRANS PECOS

CITY           SKY/WX    TMP DP  RH WIND       PRES   REMARKS
PRSMN GAP BBNP   N/A     89  61  39 NE14      30.01S
GUADLPE MTN NP   N/A     63  59  86 N12       30.25S
$$